User: anonymous   Login
Location: Unspecified
(0.0000°N, 0.0000°E)
Time: 09:47:10
(UTC+02:00)
Language:

H-2A R/B - Orbit

View from above orbital plane
View from above orbital plane
View from above satellite
View from above satellite

Ground track
Ground track

The orbit data is extracted from the following two-line orbital elements,

1 26899U 01038B   15184.70075696  .00003037  00000-0  10038-2 0  9992
2 26899 028.4001 354.6870 7136343 076.3237 003.9020 02.45819374118860
Epoch (UTC): 03 July 2015 16:49:05
Eccentricity: 0.7136343
inclination: 28.4001°
perigee height: 263 km
apogee height: 33363 km
right ascension of ascending node: 354.6870°
argument of perigee: 76.3237°
revolutions per day: 2.45819374
mean anomaly at epoch: 3.9020°
orbit number at epoch: 11886

The dashed part of the orbit path shows where the satellite is in the earth's shadow,  

DLR